Portland, OR

3:27 AM PDT on September 24, 2017 (GMT -0700)
Portland International

Weather History for KPDX - February, 2012

Change the Weather History Date:

Monday, February 6, 2012

  Actual Average Record
Temperature  
Mean Temperature 45 °F 43 °F  
Max Temperature 54 °F 50 °F 59 °F (1998)
Min Temperature 35 °F 36 °F 15 °F (1989)
Degree Days  
Heating Degree Days 20 22  
Month to date heating degree days 121 132  
Since 1 July heating degree days 2591 2596  
Cooling Degree Days 0 0  
Month to date cooling degree days 0 0  
Year to date cooling degree days 0 0  
Moisture  
Dew Point 29 °F    
Average Humidity 57    
Maximum Humidity 76    
Minimum Humidity 38    
Precipitation  
Precipitation 0.00 in 0.14 in 2.16 in (1996)
Month to date precipitation 0.01 0.79  
Year to date precipitation 6.83 5.67  
Snow  
Snow 0.00 in - 3.80 in (2014)
Month to date snowfall 0.0  
Since 1 July snowfall 0.0  
Snow Depth 0.00 in    
Sea Level Pressure  
Sea Level Pressure 29.97 in    
Wind  
Wind Speed 14 mph (ESE)    
Max Wind Speed 30 mph    
Max Gust Speed 37 mph    
Visibility 10 miles    
Events      
T = Trace of Precipitation, MM = Missing Value Source: NWS Daily Summary

Daily Weather History Graph

Daily Weather History Graph

Search for Another Location

Airport or City:

Trip Planner

Search our weather history database for the weather conditions in past years. The results will help you decide how hot, cold, wet, or windy it might be!

Date:

Astronomy

Feb. 06, 2012 Rise Set
Actual Time 7:25 AM PST 5:23 PM PST
Civil Twilight 6:54 AM PST 5:54 PM PST
Nautical Twilight 6:19 AM PST 6:30 PM PST
Astronomical Twilight 5:44 AM PST 7:04 PM PST
Moon 4:33 PM PST (2/6) 6:22 AM PST (2/6)
Length of Visible Light 11h 00m
Length of Day
9h 57m
Waxing Gibbous, 99% of the Moon is Illuminated
Feb 6
Waxing Gibbous
Feb 7
Full
Feb 14
Last Quarter
Feb 21
New
Feb 29
First Quarter

Hourly Weather History & Observations

Time (PST) Temp. Windchill Dew Point Humidity Pressure Visibility Wind Dir Wind Speed Gust Speed Precip Events Conditions
12:53 AM 37.9 °F - 30.9 °F 76% 30.09 in 10.0 mi Calm Calm - N/A   Clear
1:53 AM 36.0 °F 30.3 °F 28.9 °F 76% 30.08 in 10.0 mi East 6.9 mph - N/A   Clear
2:53 AM 37.0 °F - 28.0 °F 70% 30.07 in 10.0 mi Calm Calm - N/A   Clear
3:53 AM 41.0 °F 34.7 °F 28.9 °F 62% 30.05 in 10.0 mi SE 10.4 mph - N/A   Partly Cloudy
4:53 AM 41.0 °F 35.2 °F 30.0 °F 65% 30.04 in 10.0 mi ESE 9.2 mph - N/A   Partly Cloudy
5:53 AM 41.0 °F 33.1 °F 30.0 °F 65% 30.02 in 10.0 mi ESE 15.0 mph - N/A   Scattered Clouds
6:53 AM 39.9 °F 32.9 °F 30.0 °F 68% 30.02 in 10.0 mi ESE 11.5 mph - N/A   Scattered Clouds
7:53 AM 39.9 °F 32.9 °F 30.0 °F 68% 30.03 in 10.0 mi ESE 11.5 mph - N/A   Partly Cloudy
8:53 AM 43.0 °F 36.0 °F 30.0 °F 60% 30.02 in 10.0 mi ESE 13.8 mph 19.6 mph N/A   Clear
9:53 AM 45.0 °F 37.9 °F 30.9 °F 58% 30.02 in 10.0 mi ESE 16.1 mph - N/A   Partly Cloudy
10:53 AM 48.9 °F - 30.9 °F 50% 30.01 in 10.0 mi ESE 13.8 mph - N/A   Partly Cloudy
11:53 AM 51.1 °F - 30.9 °F 46% 29.98 in 10.0 mi ESE 19.6 mph 26.5 mph N/A   Clear
12:53 PM 52.0 °F - 30.9 °F 45% 29.95 in 10.0 mi ESE 19.6 mph - N/A   Clear
1:53 PM 54.0 °F - 30.0 °F 40% 29.93 in 10.0 mi East 18.4 mph 31.1 mph N/A   Clear
2:53 PM 54.0 °F - 28.0 °F 37% 29.91 in 10.0 mi East 24.2 mph 32.2 mph N/A   Partly Cloudy
3:53 PM 52.0 °F - 27.0 °F 38% 29.90 in 10.0 mi East 23.0 mph 36.8 mph N/A   Partly Cloudy
4:53 PM 48.9 °F - 28.0 °F 44% 29.89 in 10.0 mi East 23.0 mph 33.4 mph N/A   Partly Cloudy
5:53 PM 45.0 °F 37.1 °F 28.0 °F 52% 29.88 in 10.0 mi ESE 19.6 mph - N/A   Partly Cloudy
6:53 PM 44.1 °F 36.8 °F 28.0 °F 53% 29.89 in 10.0 mi ESE 16.1 mph - N/A   Partly Cloudy
7:53 PM 43.0 °F 35.7 °F 28.0 °F 56% 29.90 in 10.0 mi ESE 15.0 mph - N/A   Partly Cloudy
8:53 PM 44.1 °F 37.4 °F 27.0 °F 51% 29.91 in 10.0 mi ESE 13.8 mph - N/A   Clear
9:53 PM 43.0 °F 34.8 °F 27.0 °F 53% 29.88 in 10.0 mi ESE 18.4 mph - N/A   Clear
10:53 PM 43.0 °F 37.7 °F 28.0 °F 56% 29.87 in 10.0 mi ESE 9.2 mph - N/A   Clear
11:53 PM 43.0 °F 36.4 °F 28.0 °F 56% 29.87 in 10.0 mi ESE 12.7 mph - N/A   Clear